Tyler, TX

12:21 AM CST on January 20, 2018 (GMT -0600)
Tyler Pounds

Weather History for KTYR - October, 2012

Change the Weather History Date:

Tuesday, October 16, 2012

  Actual Average Record
Temperature  
Mean Temperature 62 °F 67 °F  
Max Temperature 68 °F 78 °F 98 °F (1910)
Min Temperature 56 °F 56 °F 36 °F (1966)
Degree Days  
Heating Degree Days 3 2  
Month to date heating degree days 37 19  
Since 1 July heating degree days 39 24  
Cooling Degree Days 0 4  
Month to date cooling degree days 94 86  
Year to date cooling degree days 2908 2350  
Growing Degree Days 12 (Base 50)    
Moisture  
Dew Point 55 °F    
Average Humidity 78    
Maximum Humidity 97    
Minimum Humidity 58    
Precipitation  
Precipitation 0.00 in 0.17 in 2.55 in (1923)
Month to date precipitation 1.04 2.29  
Year to date precipitation 30.48 34.89  
Snow  
Snow 0.00 in - - ()
Month to date snowfall 0.0  
Since 1 July snowfall 0.0  
Since 1 September snowfall 0.0  
Snow Depth 0.00 in    
Sea Level Pressure  
Sea Level Pressure 29.87 in    
Wind  
Wind Speed 9 mph (South)    
Max Wind Speed 16 mph    
Max Gust Speed 21 mph    
Visibility 10 miles    
Events      
T = Trace of Precipitation, MM = Missing Value Source: NWS Daily Summary

Daily Weather History Graph

Daily Weather History Graph

Search for Another Location

Airport or City:

Trip Planner

Search our weather history database for the weather conditions in past years. The results will help you decide how hot, cold, wet, or windy it might be!

Date:

Astronomy

Oct. 16, 2012 Rise Set
Actual Time 7:26 AM CDT 6:47 PM CDT
Civil Twilight 7:01 AM CDT 7:11 PM CDT
Nautical Twilight 6:33 AM CDT 7:40 PM CDT
Astronomical Twilight 6:04 AM CDT 8:08 PM CDT
Moon 8:43 AM CDT (10/16) 7:40 PM CDT (10/16)
Length of Visible Light 12h 10m
Length of Day
11h 20m
New Moon, 2% of the Moon is Illuminated
Oct 16
New Moon
Oct 21
First Quarter
Oct 29
Full
Nov 6
Last Quarter
Nov 13
New

Hourly Weather History & Observations

Time (CDT) Temp. Dew Point Humidity Pressure Visibility Wind Dir Wind Speed Gust Speed Precip Events Conditions
12:53 AM 60.1 °F 52.0 °F 75% 30.00 in 10.0 mi Calm Calm - N/A   Clear
1:53 AM 57.0 °F 51.1 °F 81% 29.98 in 10.0 mi SSE 5.8 mph - N/A   Clear
2:53 AM 59.0 °F 52.0 °F 78% 29.96 in 10.0 mi South 6.9 mph - N/A   Clear
3:53 AM 57.9 °F 52.0 °F 81% 29.94 in 10.0 mi South 4.6 mph - N/A   Clear
4:53 AM 57.9 °F 52.0 °F 81% 29.94 in 10.0 mi South 5.8 mph - N/A   Clear
5:53 AM 57.9 °F 52.0 °F 81% 29.93 in 10.0 mi SSE 5.8 mph - N/A   Clear
7:53 AM 57.9 °F 53.1 °F 84% 29.93 in 10.0 mi SSE 5.8 mph - N/A   Clear
8:53 AM 60.1 °F 54.0 °F 80% 29.94 in 10.0 mi South 5.8 mph - N/A   Clear
9:53 AM 62.1 °F 55.0 °F 78% 29.95 in 10.0 mi SSE 3.5 mph - N/A   Clear
10:53 AM 64.9 °F 54.0 °F 68% 29.94 in 10.0 mi South 8.1 mph - N/A   Clear
11:53 AM 66.9 °F 52.0 °F 59% 29.93 in 10.0 mi South 10.4 mph - N/A   Mostly Cloudy
12:53 PM 66.9 °F 53.1 °F 61% 29.91 in 10.0 mi South 10.4 mph - N/A   Mostly Cloudy
1:53 PM 68.0 °F 54.0 °F 61% 29.87 in 10.0 mi South 9.2 mph - N/A   Scattered Clouds
2:53 PM 68.0 °F 55.0 °F 63% 29.86 in 9.0 mi SSW 8.1 mph - N/A   Mostly Cloudy
3:53 PM 68.0 °F 55.9 °F 65% 29.82 in 10.0 mi South 12.7 mph - 0.00 in   Partly Cloudy
4:53 PM 66.9 °F 57.0 °F 70% 29.81 in 10.0 mi South 8.1 mph - N/A   Overcast
5:53 PM 66.9 °F 57.9 °F 73% 29.79 in 10.0 mi South 12.7 mph - N/A   Scattered Clouds
6:53 PM 64.0 °F 57.9 °F 80% 29.78 in 10.0 mi South 11.5 mph - N/A   Clear
7:53 PM 63.0 °F 59.0 °F 87% 29.79 in 10.0 mi South 8.1 mph - N/A   Clear
8:53 PM 63.0 °F 59.0 °F 87% 29.77 in 10.0 mi South 12.7 mph - N/A   Clear
9:53 PM 63.0 °F 59.0 °F 87% 29.76 in 10.0 mi South 12.7 mph - N/A   Clear
10:53 PM 62.1 °F 59.0 °F 90% 29.75 in 10.0 mi South 11.5 mph - N/A   Clear
11:53 PM 61.0 °F 59.0 °F 93% 29.74 in 10.0 mi South 8.1 mph - N/A   Clear